Wetbulb
55.62 56.94 56.62 53.94 52.18 56.19 51.59 52.18 49.35 51.10 54.21 57.28 61.02 62.31 63.76 63.77 64.23 66.09 67.96 68.44 69.00 70.46 70.82 71.59 71.92 72.20 73.33 74.42 74.41 74.51 74.13 74.84
55.26 56.14 55.93 53.97 55.79 51.97 52.56 46.61 45.48 49.47 51.75 52.89 58.21 60.26 62.18 62.17 63.51 64.66 66.80 68.50 68.93 70.12 70.97 71.90 72.58 72.73 73.26 73.73 74.25 74.92 75.00 75.11
55.97 53.42 52.69 53.27 52.16 53.57 53.43 51.78 47.18 46.46 50.41 57.44 58.47 59.99 61.65 62.81 63.98 65.60 66.71 68.20 69.34 70.09 71.30 72.27 72.53 72.77 73.07 73.45 74.20 74.54 74.79 75.88
53.28 56.98 57.66 56.12 54.49 54.29 49.76 49.82 51.75 51.59 51.29 58.62 59.89 60.36 61.68 63.82 65.01 66.73 67.88 68.91 70.00 70.36 71.09 72.00 72.57 72.91 73.51 74.59 73.88 74.77 76.19 76.94
51.34 54.56 56.84 54.59 55.33 55.25 54.67 53.98 51.51 48.81 50.79 59.62 59.74 60.80 61.67 62.83 65.61 67.35 68.28 69.34 70.30 70.63 71.08 71.95 72.61 74.77 73.69 75.76 74.65 74.77 75.83 74.51
49.14 52.53 54.01 53.19 55.17 55.63 54.52 50.89 51.62 51.59 53.14 56.89 58.51 59.36 62.47 63.47 66.32 67.24 68.57 69.46 69.86 70.68 71.39 72.42 74.03 75.90 75.65 75.77 77.08 75.35 75.09 74.67
54.15 54.44 54.50 53.84 53.83 54.60 54.18 55.04 52.41 53.60 53.84 55.93 58.62 60.43 61.65 64.31 65.96 66.95 68.09 69.06 69.78 70.38 71.75 73.76 74.08 74.78 75.42 75.60 76.59 77.01 76.40 75.83
52.62 54.21 54.12 52.67 54.08 54.32 54.19 54.26 54.52 55.05 54.81 58.56 59.90 61.11 61.87 63.11 65.37 67.04 67.59 68.46 69.90 70.97 72.53 73.16 74.10 74.48 74.92 75.07 75.73 76.53 76.74 75.26
50.39 54.17 53.57 50.74 54.05 54.59 54.79 55.69 55.29 52.68 56.96 60.25 59.64 60.35 61.39 62.26 65.31 66.70 68.27 69.18 70.14 71.75 72.92 73.61 74.25 75.01 74.59 75.31 75.93 75.78 75.99 75.79
50.44 52.63 45.10 54.16 57.92 56.88 55.87 56.67 57.48 57.53 57.89 59.63 60.80 61.78 64.01 64.34 64.45 67.06 68.65 70.09 71.18 72.38 73.37 73.88 74.18 74.75 75.26 75.23 75.78 75.58 75.25 75.58
48.10 48.12 51.32 53.08 55.52 55.59 55.20 55.19 58.45 59.49 60.83 61.18 61.34 61.83 63.35 64.56 65.53 66.58 69.53 70.85 72.11 73.51 73.94 74.38 73.76 74.69 74.86 74.73 75.15 74.95 74.48 74.82
49.77 46.00 44.08 52.53 56.86 60.51 58.91 52.05 61.30 61.50 61.38 61.65 60.89 57.58 61.41 67.37 67.34 68.26 70.57 71.90 72.67 73.37 73.18 72.96 73.50 74.44 74.13 73.47 73.35 72.84 73.25 74.01
49.21 47.23 50.42 55.72 58.29 59.39 48.83 52.88 61.14 62.32 62.66 62.84 62.47 60.11 66.46 66.84 67.30 68.69 70.71 72.18 73.59 72.81 72.35 72.29 73.29 72.62 71.29 71.72 71.83 73.30 74.20 74.36
49.78 46.34 43.74 58.56 57.84 54.07 57.65 60.94 61.59 62.41 62.63 62.42 63.72 64.91 64.82 66.73 66.77 67.24 68.76 72.43 72.58 72.16 71.17 71.05 71.84 71.54 71.35 72.29 73.74 74.23 74.37 73.77
50.30 49.95 54.33 56.13 58.13 59.74 59.34 60.63 61.31 62.74 63.04 62.45 62.69 63.89 65.86 66.47 67.36 66.95 68.01 70.02 72.61 72.38 70.16 71.71 72.53 72.13 71.50 74.79 74.86 73.70 72.80 71.88
52.12 54.34 55.72 57.39 58.61 58.76 61.12 61.14 61.05 62.25 62.94 62.80 61.90 63.30 64.66 66.48 67.59 68.40 68.47 68.96 71.39 72.60 70.40 71.36 72.70 73.02 73.13 73.82 73.37 71.93 71.31 70.79
50.48 53.07 55.26 56.44 56.42 58.55 59.85 60.34 60.37 61.13 62.29 62.73 63.23 63.58 64.72 66.12 67.79 69.29 69.74 70.34 70.80 72.99 72.85 72.07 72.32 72.87 72.69 71.96 71.78 70.90 70.73 70.01
48.98 55.15 54.94 54.97 58.11 58.04 58.51 58.42 59.54 60.16 60.91 62.80 64.33 63.94 64.71 65.72 68.24 69.79 70.82 71.43 71.81 73.31 72.32 70.70 72.13 70.94 71.41 71.66 71.55 70.21 68.84 68.45
53.42 56.90 56.87 57.07 58.67 58.60 58.46 59.17 59.19 60.66 62.88 62.31 64.07 64.18 64.29 64.89 67.16 67.99 70.67 71.91 72.10 73.77 73.66 69.32 71.23 69.48 70.85 71.53 70.76 70.07 68.14 68.30
MSLP
999.03 999.42 999.76 999.67 999.41 999.12 998.53 997.97 997.10 996.33 996.12 996.31 996.86 997.28 997.86 998.18 998.73 999.22 1000.10 1001.14 1002.07 1003.33 1004.59 1005.75 1006.78 1007.83 1008.63 1009.67 1010.90 1011.64 1012.20 1012.78
998.71 999.30 999.40 999.40 998.95 998.40 998.24 997.91 997.16 996.28 996.65 995.49 996.06 996.80 997.59 998.07 998.52 999.23 999.68 1000.47 1001.53 1002.59 1003.93 1005.14 1006.21 1007.29 1008.24 1009.05 1009.97 1010.69 1011.29 1011.98
998.17 998.56 998.14 998.47 998.72 998.69 998.41 997.92 997.07 996.49 996.30 997.34 996.72 996.85 996.99 997.74 998.39 999.23 999.83 1000.22 1001.20 1002.13 1003.42 1004.57 1005.48 1006.54 1007.61 1008.50 1009.26 1009.97 1010.46 1010.98
997.66 997.49 997.56 997.66 997.39 997.58 997.55 997.60 997.47 996.98 995.88 995.51 996.38 996.75 996.74 997.17 998.49 999.36 1000.03 1000.51 1001.31 1002.17 1003.08 1004.15 1005.00 1005.57 1006.79 1007.95 1008.64 1009.32 1009.71 1010.33
997.89 997.28 996.67 996.75 997.23 997.44 997.35 996.89 996.63 996.55 995.65 995.76 996.92 996.82 996.91 996.99 998.12 999.49 1000.13 1000.79 1001.50 1002.28 1003.15 1004.05 1004.88 1005.55 1006.13 1007.32 1008.03 1008.51 1009.15 1009.81
998.09 996.83 997.50 998.84 998.03 997.38 997.03 996.34 995.97 995.55 995.28 995.73 996.01 996.53 996.53 996.94 997.65 999.06 1000.07 1000.81 1001.41 1002.18 1003.09 1004.01 1004.75 1005.46 1006.25 1006.93 1007.75 1008.08 1008.68 1009.20
999.23 998.45 997.63 997.28 997.24 997.11 997.02 996.62 996.02 995.38 994.94 994.99 996.84 995.73 995.39 996.19 997.11 998.41 999.68 1000.47 1001.16 1001.86 1002.77 1003.81 1004.72 1005.44 1006.25 1006.73 1007.57 1008.03 1008.47 1009.06
999.81 999.17 998.37 997.74 997.49 997.15 996.82 996.43 996.03 995.84 995.16 995.22 995.81 997.32 995.62 995.52 996.57 997.66 998.82 999.80 1000.64 1001.62 1002.60 1003.57 1004.47 1005.28 1006.03 1006.62 1007.24 1007.97 1008.33 1008.71
999.89 999.62 998.73 997.54 997.32 996.95 996.52 996.12 995.80 995.38 995.30 995.23 995.15 995.11 996.90 995.62 996.07 997.06 998.01 999.07 1000.06 1001.12 1002.25 1003.20 1004.11 1005.03 1005.68 1006.40 1007.05 1007.72 1008.27 1008.78
1001.04 1000.46 998.58 997.87 997.47 996.96 996.66 995.91 996.04 995.90 995.77 995.67 995.18 995.43 996.24 995.79 995.19 996.40 997.56 998.57 999.67 1000.74 1001.93 1002.96 1003.83 1004.79 1005.63 1006.35 1007.00 1007.51 1008.03 1008.51
1001.47 1000.54 999.59 998.85 998.05 997.56 997.14 996.91 996.90 997.41 997.25 996.44 995.93 995.29 994.65 993.71 995.01 995.73 996.88 998.07 999.38 1000.46 1001.56 1002.57 1003.47 1004.50 1005.50 1006.27 1007.01 1007.52 1007.83 1008.22
1001.88 1001.00 999.89 999.52 999.52 999.51 999.08 999.12 999.22 999.38 999.00 998.17 998.70 995.95 996.67 995.77 995.65 996.46 996.90 997.97 999.26 1000.33 1001.70 1002.61 1003.42 1004.34 1005.23 1005.90 1006.71 1007.20 1007.69 1008.12
1001.66 1001.54 1001.12 1000.83 1001.13 1001.25 1000.97 1001.51 1001.49 1001.50 1000.70 1000.22 999.61 1000.16 999.44 997.96 997.71 997.46 997.25 998.16 999.32 1000.37 1001.55 1002.51 1003.47 1004.25 1005.01 1005.69 1006.38 1006.99 1007.69 1008.18
1003.09 1003.61 1003.55 1004.09 1002.71 1002.21 1003.18 1002.59 1002.52 1002.38 1001.99 1001.40 1001.26 1000.62 1000.06 999.61 999.00 998.56 998.08 998.37 999.55 1000.54 1001.44 1002.44 1003.35 1004.29 1004.93 1005.55 1006.22 1006.97 1007.73 1008.42
1005.67 1005.19 1005.88 1005.86 1004.42 1003.67 1003.41 1002.98 1002.91 1002.76 1002.46 1002.13 1001.71 1001.25 1001.14 1000.75 999.95 999.38 999.38 998.92 999.56 1000.41 1001.54 1002.48 1003.35 1003.98 1004.79 1005.59 1006.38 1007.08 1007.82 1008.62
1005.85 1005.19 1004.83 1004.54 1004.52 1004.15 1003.67 1003.85 1004.09 1003.82 1003.27 1002.94 1002.57 1002.35 1001.85 1001.01 1000.64 1000.33 999.90 999.57 999.58 1000.26 1001.43 1002.64 1003.48 1004.13 1004.78 1005.74 1006.61 1007.30 1007.77 1008.42
1006.65 1006.07 1006.14 1005.47 1005.34 1004.64 1004.16 1004.55 1004.42 1004.32 1003.90 1003.57 1003.24 1002.73 1002.31 1001.78 1001.38 1000.98 1000.43 1000.21 999.80 1000.04 1001.19 1002.75 1003.86 1004.51 1005.12 1006.05 1006.76 1007.28 1007.80 1008.22
1007.47 1006.83 1006.49 1006.16 1005.69 1005.14 1004.79 1004.85 1004.95 1004.77 1003.96 1003.63 1003.07 1002.71 1002.47 1001.81 1001.63 1001.69 1001.08 1000.72 1000.31 1000.49 1001.40 1002.79 1003.87 1004.80 1005.53 1006.03 1006.78 1007.14 1007.65 1008.16
1008.97 1007.83 1006.89 1006.13 1005.11 1004.76 1004.52 1004.70 1005.13 1004.99 1003.98 1003.07 1002.62 1002.44 1002.06 1001.93 1001.62 1001.97 1002.02 1001.30 1001.12 1001.61 1002.60 1003.34 1004.00 1005.29 1005.77 1005.98 1006.79 1007.41 1007.29 1007.86
Wind_Speed
9 20 19 16 17 13 16 17 14 7 4 6 8 7 7 6 6 11 19 21 20 20 20 18 19 19 18 19 18 18 18 14
13 8 13 16 17 11 11 13 13 6 9 6 10 10 7 5 7 6 10 17 18 19 19 18 18 18 18 18 19 18 18 16
9 11 14 9 13 14 15 13 13 10 5 8 2 1 7 7 4 7 8 12 17 17 18 18 18 20 18 17 16 17 17 16
16 16 16 14 16 15 13 17 11 13 11 10 7 2 3 10 6 9 8 10 13 15 16 16 16 16 18 16 17 16 15 13
18 16 19 12 14 14 18 16 15 14 11 16 1 6 3 5 12 10 10 13 13 14 14 15 15 13 14 14 16 16 14 16
17 19 4 8 21 16 18 16 16 17 18 12 9 6 9 8 15 14 13 14 15 15 15 15 14 12 12 13 12 14 15 15
22 25 25 21 20 19 18 19 17 19 20 5 15 23 12 12 12 16 16 16 15 15 14 13 13 13 13 12 12 12 12 14
22 26 23 24 23 23 24 23 22 21 21 19 5 13 14 10 14 16 18 18 17 15 15 15 14 14 13 13 13 12 11 12
21 21 23 24 22 26 26 25 22 21 20 18 18 4 14 11 14 14 16 17 18 17 15 14 13 13 13 13 12 13 12 11
18 20 26 20 21 22 21 19 15 16 18 18 17 5 5 22 11 15 14 16 17 15 14 14 14 14 12 13 12 12 12 11
17 18 24 24 19 14 12 13 9 13 17 18 21 8 16 10 6 5 13 15 15 15 15 15 15 15 14 13 11 11 11 11
16 21 22 16 7 12 8 12 13 13 12 16 23 13 8 14 8 2 13 13 15 16 15 15 15 15 14 13 12 11 10 9
14 18 19 16 13 8 11 3 9 14 12 13 12 5 18 9 8 6 7 14 15 17 15 15 16 16 15 13 12 11 9 8
11 11 14 19 11 7 11 9 9 7 13 11 13 9 2 14 7 4 3 14 16 15 15 16 16 15 14 13 13 12 12 6
7 4 13 4 16 13 6 11 7 9 11 13 13 13 11 7 8 4 5 6 14 16 16 16 14 15 15 12 12 11 12 9
14 14 17 15 14 12 9 10 12 15 15 9 10 13 12 10 10 10 5 6 12 16 17 15 14 14 14 14 13 13 12 11
17 14 14 17 21 17 14 14 16 14 15 13 12 11 10 8 9 9 7 8 11 14 16 16 15 13 15 13 12 11 10 9
12 15 15 13 17 16 13 12 13 18 17 15 14 10 11 9 7 9 9 8 9 10 15 15 15 15 14 14 12 12 10 8
11 17 19 18 21 15 17 9 14 16 20 15 14 10 11 9 7 7 10 8 8 8 12 9 15 14 14 14 12 10 7 6
Wind_Direction
220 215 229 241 257 285 290 286 261 262 144 214 103 105 146 182 161 188 186 192 208 180 187 186 186 190 191 177 191 196 200 200
198 200 241 262 270 247 221 258 266 287 314 243 162 110 136 163 167 194 195 190 196 181 189 184 184 193 194 192 190 197 203 200
217 208 256 182 233 252 275 295 312 289 47 6 298 184 172 173 167 157 188 194 189 185 182 186 193 189 190 199 193 198 205 195
251 243 228 250 266 220 227 233 246 296 292 179 143 140 246 151 148 139 168 178 183 191 183 185 196 197 180 197 197 200 204 202
254 252 236 235 238 252 263 278 271 266 278 85 166 172 225 231 149 151 166 166 178 182 185 186 192 199 191 183 203 198 199 204
284 293 15 264 282 255 270 253 260 250 264 165 186 250 182 202 159 168 177 171 179 177 182 187 191 187 201 185 200 205 195 208
274 280 283 286 270 262 249 265 275 280 285 271 344 312 189 171 187 177 182 178 182 179 179 181 187 188 193 197 191 204 189 207
270 279 281 277 280 281 276 275 271 267 272 283 204 227 310 176 179 189 183 189 186 186 180 186 187 193 190 196 187 196 199 202
272 273 271 259 256 258 260 258 262 264 267 266 276 263 207 253 173 199 196 193 187 183 184 182 182 186 185 189 179 188 191 202
272 277 262 272 284 289 300 280 290 291 293 293 263 289 220 277 194 180 201 188 183 180 175 174 173 177 174 177 180 182 189 195
261 256 270 270 272 290 313 300 306 353 328 305 296 237 247 202 194 213 174 181 182 178 171 167 166 161 163 167 174 183 187 191
249 258 261 274 32 359 305 276 13 354 337 339 307 189 29 32 73 239 161 168 175 165 160 168 166 161 163 169 175 182 183 185
254 247 257 282 4 267 262 344 11 338 345 345 356 42 319 30 60 331 179 163 165 159 167 167 163 163 169 164 172 169 164 175
272 324 262 347 311 323 3 327 339 335 337 345 343 343 13 328 15 11 268 155 173 165 170 165 169 165 166 168 163 157 155 151
296 246 206 173 294 332 279 302 319 321 324 340 331 339 339 331 329 338 296 235 183 175 174 167 172 169 167 162 155 147 149 168
292 291 308 310 305 303 328 334 327 322 318 319 314 307 322 339 338 320 278 242 210 184 173 174 174 170 166 153 157 163 160 172
307 268 344 333 334 341 330 321 308 311 305 304 300 297 302 319 321 312 291 257 248 193 169 173 176 172 151 160 162 167 165 168
291 305 305 283 282 297 279 292 297 302 291 283 283 303 299 304 321 304 296 274 256 211 149 156 166 159 157 154 166 159 163 176
316 321 314 303 289 268 260 290 304 296 294 268 266 279 288 284 304 303 287 258 244 174 154 145 156 151 154 148 155 167 154 132